This is the latest recevied weather packets stored in our database for station/object W0VI. If no packets are shown the sender has not sent any weather packets the latest 10 day(s).
| Time | Temp. | Humidity | Pressure | Rain* | Wind** | Luminosity | Snow |
|---|---|---|---|---|---|---|---|
| 1788002938 | 19.44° C | 98% | 1014 hPa | 3.05 mm | - | 0 W/m² | - |
| 1788002633 | 19.44° C | 98% | 1014 hPa | 1.78 mm | - | 0 W/m² | - |
| 1788002329 | 20° C | 97% | 1013.9 hPa | 3.05 mm | - | 0 W/m² | - |
| 1788002023 | 20° C | 97% | 1013.9 hPa | 3.05 mm | - | 0 W/m² | - |
| 1788001723 | 20° C | 97% | 1014 hPa | 3.56 mm | - | 0 W/m² | - |
| 1788001418 | 20° C | 96% | 1013.8 hPa | 3.05 mm | - | 0 W/m² | - |
| 1788001113 | 20° C | 96% | 1014.3 hPa | 3.05 mm | - | 0 W/m² | - |
| 1788000808 | 20° C | 96% | 1014.1 hPa | 3.05 mm | - | 0 W/m² | - |
| 1788000503 | 20° C | 95% | 1014.4 hPa | 1.27 mm | - | 0 W/m² | - |
| 1788000198 | 20° C | 94% | 1014.2 hPa | 1.78 mm | - | 0 W/m² | - |
| 1787999894 | 20° C | 94% | 1014.4 hPa | 1.27 mm | - | 0 W/m² | - |
| 1787999591 | 20° C | 93% | 1014.4 hPa | 1.27 mm | - | 0 W/m² | - |
| 1787999288 | 20.56° C | 92% | 1014.2 hPa | 1.78 mm | - | 0 W/m² | - |
| 1787998982 | 20.56° C | 91% | 1014.4 hPa | 1.78 mm | - | 0 W/m² | - |
| 1787998682 | 20.56° C | 90% | 1014.3 hPa | 0 mm | - | 0 W/m² | - |
| 1787998380 | 20.56° C | 89% | 1014.3 hPa | 0 mm | - | 0 W/m² | - |
| 1787998075 | 21.11° C | 88% | 1014.5 hPa | 0 mm | - | 0 W/m² | - |
| 1787997775 | 21.11° C | 87% | 1014.4 hPa | 0 mm | - | 0 W/m² | - |
| 1787997472 | 21.11° C | 87% | 1014.5 hPa | 0 mm | - | 0 W/m² | - |
| 1787997168 | 21.11° C | 87% | 1014.5 hPa | 0 mm | - | 0 W/m² | - |
| 1787996867 | 21.11° C | 86% | 1014.4 hPa | 0 mm | - | 0 W/m² | - |
| 1787996562 | 21.11° C | 86% | 1014.5 hPa | 0 mm | - | 0 W/m² | - |
| 1787996257 | 21.11° C | 86% | 1013.9 hPa | 0 mm | - | 0 W/m² | - |
| 1787995956 | 21.67° C | 85% | 1014.1 hPa | 0 mm | - | 0 W/m² | - |
| 1787995651 | 21.67° C | 84% | 1014 hPa | 0 mm | - | 0 W/m² | - |
* Rain latest hour (hover to see other rain measurements)
** Current wind speed in m/s (hover to see current wind gust speed)